XBBAM MMMY-MMCP

Flight info

Callsign XBBAM
Flight time N/A
Altitude 39000
Route XOTAT1 XOTAT UT11 AMORI DCT COFRE UM206 NOSOS DCT CPE
Aircraft B738/M-SDE2E3FGHIRWXY/LB1

Departure

Time 2026-04-27 02:37
Airport Monterrey International Airport (MMMY)

Arrival

Time N/A
Airport Ingeniero Alberto Acuña Ongay International Airport (MMCP)
Time Latitude Longitude Altitude Speed Heading
2026-04-27 01:27 25.77849 -100.11472 1286 ft 0 kts 31°
2026-04-27 02:18 25.77839 -100.11478 1286 ft 2 kts 30°
2026-04-27 02:19 25.77827 -100.11488 1286 ft 2 kts 51°
2026-04-27 02:19 25.77819 -100.11501 1286 ft 2 kts 68°
2026-04-27 02:19 25.77815 -100.11517 1286 ft 2 kts 86°
2026-04-27 02:19 25.77816 -100.11534 1287 ft 2 kts 104°
2026-04-27 02:20 25.77820 -100.11546 1287 ft 0 kts 118°
2026-04-27 02:20 25.77824 -100.11552 1287 ft 0 kts 121°
2026-04-27 02:25 25.77822 -100.11550 1287 ft 0 kts 121°
2026-04-27 02:26 25.77816 -100.11538 1287 ft 1 kts 120°
2026-04-27 02:26 25.77789 -100.11486 1285 ft 10 kts 121°
2026-04-27 02:26 25.77747 -100.11410 1283 ft 12 kts 121°
2026-04-27 02:26 25.77698 -100.11322 1280 ft 14 kts 120°
2026-04-27 02:27 25.77721 -100.11226 1279 ft 14 kts 47°
2026-04-27 02:27 25.77791 -100.11141 1276 ft 15 kts 39°
2026-04-27 02:27 25.77881 -100.11148 1277 ft 13 kts 308°
2026-04-27 02:27 25.77926 -100.11230 1279 ft 10 kts 301°
2026-04-27 02:28 25.77957 -100.11292 1282 ft 7 kts 300°
2026-04-27 02:28 25.77979 -100.11330 1283 ft 4 kts 303°
2026-04-27 02:28 25.78002 -100.11371 1284 ft 7 kts 302°
2026-04-27 02:28 25.78030 -100.11420 1284 ft 7 kts 301°
2026-04-27 02:29 25.78055 -100.11465 1285 ft 7 kts 302°
2026-04-27 02:29 25.78084 -100.11520 1286 ft 8 kts 300°
2026-04-27 02:29 25.78114 -100.11572 1287 ft 6 kts 302°
2026-04-27 02:29 25.78134 -100.11610 1288 ft 4 kts 298°
2026-04-27 02:30 25.78143 -100.11629 1289 ft 0 kts 297°
2026-04-27 02:33 25.78153 -100.11649 1289 ft 6 kts 300°
2026-04-27 02:33 25.78176 -100.11690 1290 ft 5 kts 302°
2026-04-27 02:33 25.78197 -100.11727 1290 ft 6 kts 302°
2026-04-27 02:33 25.78225 -100.11775 1291 ft 7 kts 311°
2026-04-27 02:34 25.78273 -100.11795 1290 ft 7 kts
2026-04-27 02:34 25.78327 -100.11771 1289 ft 9 kts 28°
2026-04-27 02:34 25.78335 -100.11765 1289 ft 0 kts 29°
2026-04-27 02:34 25.78338 -100.11764 1289 ft 0 kts 29°
2026-04-27 02:35 25.78362 -100.11748 1288 ft 7 kts 31°
2026-04-27 02:35 25.78399 -100.11712 1288 ft 7 kts 89°
2026-04-27 02:35 25.78389 -100.11676 1287 ft 0 kts 118°
2026-04-27 02:35 25.78387 -100.11672 1287 ft 1 kts 118°
2026-04-27 02:36 25.78384 -100.11666 1287 ft 0 kts 118°
2026-04-27 02:36 25.78384 -100.11665 1287 ft 0 kts 118°
2026-04-27 02:36 25.78368 -100.11633 1286 ft 13 kts 120°
2026-04-27 02:37 25.78235 -100.11395 1282 ft 68 kts 121°
2026-04-27 02:37 25.77878 -100.10743 1269 ft 126 kts 121°
2026-04-27 02:37 25.77348 -100.09773 1324 ft 163 kts 120°
2026-04-27 02:37 25.76750 -100.08755 1941 ft 158 kts 124°
2026-04-27 02:38 25.76050 -100.07737 2369 ft 171 kts 126°
2026-04-27 02:38 25.75349 -100.06729 3027 ft 167 kts 126°
2026-04-27 02:38 25.74659 -100.05648 3330 ft 184 kts 111°
2026-04-27 02:38 25.74332 -100.04208 3693 ft 199 kts 104°
2026-04-27 02:39 25.74037 -100.03220 3938 ft 209 kts 112°